Regional Weather Roundup
Issued by NWS Raleigh/Durham, NC

Home | Current Version | Previous Version | Text Only | Print | Product List | Glossary On
Versions: 1 2 3 4 5 6 7 8 9 10 11 12 13 14 15 16 17 18 19 20 21 22 23 24 25 26 27 28 29 30 31 32 33 34 35 36 37 38 39 40 41 42 43 44 45 46 47 48 49 50
537
ASUS42 KRAH 111910
RWRRAH
NORTH CAROLINA WEATHER ROUNDUP
NATIONAL WEATHER SERVICE RALEIGH NC
200 PM EST THU FEB 11 2016

NOTE: "FAIR" INDICATES FEW OR NO CLOUDS BELOW 12,000 FEET WITH NO
SIGNIFICANT WEATHER AND/OR OBSTRUCTIONS TO VISIBILITY.

NCZ001-053-055-056-065-067-112000-
WESTERN NORTH CAROLINA

CITY           SKY/WX    TMP DP  RH WIND       PRES   REMARKS
ASHEVILLE      SUNNY     38  16  40 N15G25    30.08F WCI  29
JEFFERSON      PTSUNNY   27   9  46 W18G25    30.00F WCI  14
MORGANTON      MOSUNNY   41  15  34 SW14G22   30.15F
HICKORY        MOSUNNY   41  14  33 VRB3      30.10F
RUTHERFORDTON  SUNNY     45  18  33 W13G23    30.12S
MOUNT AIRY     SUNNY     38   2  22 W8        30.12F WCI  32
BOONE          SUNNY     25  11  55 NW26G33   30.02F WCI   9
$$

NCZ021-022-025-041-071-084-088-112000-
CENTRAL NORTH CAROLINA

CITY           SKY/WX    TMP DP  RH WIND       PRES   REMARKS
CHARLOTTE      SUNNY     44  15  31 SW8       30.14F
GREENSBORO     MOSUNNY   36   7  29 W15       30.13F WCI  27
WINSTON-SALEM  SUNNY     36   8  31 SW10      30.14F WCI  28
RALEIGH-DURHAM MOSUNNY   38   3  23 W14G20    30.16F WCI  30
FORT BRAGG     SUNNY     44  11  26 NW13G20   30.15S
FAYETTEVILLE   SUNNY     43  12  28 W12       30.16F
BURLINGTON     SUNNY     38   5  25 W15G21    30.15F WCI  29
LAURINBURG     SUNNY     45  13  27 MISG      30.17F
$$

NCZ011-015-027-028-043-044-047-080-103-112000-
NORTHEASTERN NORTH CAROLINA

CITY           SKY/WX    TMP DP  RH WIND       PRES   REMARKS
ROCKY MT-WILSO SUNNY     37   8  30 W14       30.16F WCI  28
GREENVILLE     SUNNY     37   7  28 NW7G17    30.17F WCI  32
WASHINGTON     SUNNY     37   9  30 NW10      30.15F WCI  30
ELIZABETH CITY SUNNY     35   8  32 W13G24    30.13F WCI  26
MANTEO         SUNNY     34  10  36 NW14G21   30.14S WCI  25
CAPE HATTERAS  SUNNY     38  14  37 W13G21    30.14F WCI  30
$$

NCZ078-087-090-091-093-098-101-112000-
SOUTHEASTERN NORTH CAROLINA

CITY           SKY/WX    TMP DP  RH WIND       PRES   REMARKS
LUMBERTON      SUNNY     44  19  36 NW14      30.18F
GOLDSBORO      SUNNY     41   7  24 NW12      30.14F
KINSTON        SUNNY     39   5  24 W9G18     30.17F WCI  33
KENANSVILLE    SUNNY     40  10  29 W12G17    30.18F WCI  33
NEW BERN       SUNNY     41   8  25 NW12      30.16F
CHERRY POINT   SUNNY     41   7  24 NW18      30.16F
BEAUFORT       SUNNY     42  12  29 NW20      30.15F
JACKSONVILLE   SUNNY     42   9  25 W12G23    30.16F
WILMINGTON     SUNNY     45  14  28 W10       30.18F
$$





USA.gov is the U.S. government's official web portal to all federal, state and local government web resources and services.